Showing default

TIANMU-1 18, 58703

Orbit data source: Space-Track

TIANMU-1 18, 58703 is a payload satellite owned by Hangtian Tianmu (CN) in SSO that was launched on Fri, 05 Jan 2024 UTC via a KUAIZHOU-1A launch vehicle from the Jiuquan Satellite Launch Center, China (JSC). Payload-class satellites include a variety of spacecraft equipped with specific instruments for various scientific and technological missions. These include communications satellites like Starlink; space stations such as the ISS; scientific satellites like the Hubble; Earth observation satellites from companies like Planet Labs, Umbra, and HawkEye 360; GPS; miniature CubeSats for education and research; and military/defense satellites.

Loading next visibility...
Identifier
58703, 2024-004D
Orbit
SSO
Last TLE update
6 hours ago
Origin
Manufacturer
Hangtian Tianmu
Mission
Operational Commercial Weather
Bus & Motor
TIANMU, Unknown motor
Mass
50 kg wet, ~50 kg dry
Launch date (UTC)
2024-01-05 (1 year ago)
Launch vehicle
KUAIZHOU-1A
Launch site
Jiuquan Satellite Launch Center, China (JSC)
Object type
Payload
Rocket body
Debris
Shape & HBR
Box, 1.5 m
Radar Cross Section
2.000 m², Large (>1 m²)

Expand to show TLE details & history

TLE from 6 hours ago
0 TIANMU-1 18
1 58703U 24004D   25128.92272123  .00006781  00000-0  30277-3 0  9993
2 58703  97.4643 311.7335 0004809 344.8674  15.2417 15.21680381 74194
Epoch: 2025-05-08T22:08Z
Definitive object data (Epoch: 2025-05-08T22:08:43.114Z)
Latitude
-0.00004°
Longitude
112.5676°
Altitude
500.67 km
Speed
7.616 km/s
True Right ascension
20h 46m 56s
True Declination
0° 00' 00"
Sunlit
Object was in daylight at TLE epoch
Visualization TLE readout
Latitude
-21.47693°
Longitude
-70.13881°
Altitude
511.63 km
Speed
7.605 km/s
Apparent Right ascension
05h 19m 55s
Apparent Declination
-53° 08' 09"
Sunlit
Object is in daylight
Visualization observer readout
Local Sidereal Time
11:54:09
Azimuth
226.838° WSW
Elevation
-35.58°
Doppler factor
1
Orbital elements
Apogee altitude
501.044 km
Perigee altitude
494.431 km
Semi-major axis
6,875.875 km
Eccentricity
0.0004809
Inclination
97.4643°
RAAN
311.7335°
Arg. of periapsis
344.8674°
True anomaly
15.2562°
Mean anomaly
15.2417°
Eccentric anomaly
15.24895°
Mean motion
3.80672 °/min
BSTAR
0.00030277
Orbital period
94.57 mins
Loading maneuver chart data...
Loading SW <> Apogee altitude chart data...
Loading historical data...
Loading historical data...
Loading historical data...
Loading historical data...
Loading historical data...
Loading historical data...
Loading historical data...
Other satellites on launch #4 in the year 2024 (2024-01-05 UTC)

TIANMU-1 18 Visibility forecast

Observer location: undefined°, undefined°

Span
Click to sort rows by Start time (UTC) header in descending order
Start Az.
Max El. time (UTC)
Max El. Az.
Max El.
End time (UTC)
End Az.
6 mins2025-05-09 12:28:45.556Z187.545° SSW2025-05-09 12:31:45.556Z286.128° WNW36.84°2025-05-09 12:34:45.556Z337.069° NNW
5 mins2025-05-10 01:32:45.556Z341.481° N2025-05-10 01:34:45.556Z288.908° WNW29.675°2025-05-10 01:37:45.556Z223.947° SW
|